Time,TemperatureF,DewpointF,PressureIn,WindDirection,WindDirectionDegrees,WindSpeedMPH,WindSpeedGustMPH,Humidity,HourlyPrecipIn,Conditions,Clouds,dailyrainin,SoftwareType,DateUTC
2013-04-09 00:01:00,68.4,64.6,28.06,East,90,14.0,23.0,88,0.00,,,0.00,meteohub,2013-04-09 05:01:00,
2013-04-09 00:06:00,68.2,64.4,28.06,SE,135,15.0,23.0,88,0.00,,,0.00,meteohub,2013-04-09 05:06:00,
2013-04-09 00:11:00,68.4,64.6,28.07,East,90,11.0,23.0,88,0.00,,,0.00,meteohub,2013-04-09 05:11:00,
2013-04-09 00:16:00,68.4,64.6,28.06,SE,135,13.0,23.0,88,0.00,,,0.00,meteohub,2013-04-09 05:16:00,
2013-04-09 00:21:00,68.4,64.4,28.07,SE,135,18.0,21.0,87,0.00,,,0.00,meteohub,2013-04-09 05:21:00,
2013-04-09 00:26:00,68.7,64.8,28.07,SE,135,18.0,21.0,87,0.00,,,0.00,meteohub,2013-04-09 05:26:00,
2013-04-09 00:31:00,68.7,64.8,28.07,SE,135,15.0,21.0,87,0.00,,,0.00,meteohub,2013-04-09 05:31:00,
2013-04-09 00:36:00,68.9,64.9,28.06,ENE,68,18.0,21.0,87,0.00,,,0.00,meteohub,2013-04-09 05:36:00,
2013-04-09 00:41:00,68.9,64.6,28.07,SE,135,15.0,21.0,86,0.00,,,0.00,meteohub,2013-04-09 05:41:00,
2013-04-09 00:46:00,68.9,64.6,28.07,South,180,19.0,19.0,86,0.00,,,0.00,meteohub,2013-04-09 05:46:00,
2013-04-09 00:51:00,69.1,64.8,28.06,SE,135,12.0,19.0,86,0.00,,,0.00,meteohub,2013-04-09 05:51:00,
2013-04-09 00:56:00,68.9,64.6,28.07,East,90,14.0,19.0,86,0.00,,,0.00,meteohub,2013-04-09 05:56:00,
2013-04-09 01:02:00,69.1,64.8,28.07,South,180,12.0,19.0,86,0.00,,,0.00,meteohub,2013-04-09 06:02:00,
2013-04-09 01:07:00,69.1,64.4,28.07,SE,135,13.0,18.0,85,0.00,,,0.00,meteohub,2013-04-09 06:07:00,
2013-04-09 01:11:00,68.9,64.2,28.07,East,90,11.0,21.0,85,0.00,,,0.00,meteohub,2013-04-09 06:11:00,
2013-04-09 01:17:00,69.1,64.4,28.07,East,90,11.0,23.0,85,0.00,,,0.00,meteohub,2013-04-09 06:17:00,
2013-04-09 01:22:00,69.1,64.4,28.06,SE,135,15.0,23.0,85,0.00,,,0.00,meteohub,2013-04-09 06:22:00,
2013-04-09 01:27:00,69.1,64.4,28.07,East,90,11.0,23.0,85,0.00,,,0.00,meteohub,2013-04-09 06:27:00,
2013-04-09 01:32:00,69.3,64.6,28.06,East,90,11.0,23.0,85,0.00,,,0.00,meteohub,2013-04-09 06:32:00,
2013-04-09 01:37:00,69.3,64.2,28.07,East,90,16.0,17.0,84,0.00,,,0.00,meteohub,2013-04-09 06:37:00,
2013-04-09 01:42:00,69.4,64.4,28.07,SE,135,17.0,22.0,84,0.00,,,0.00,meteohub,2013-04-09 06:42:00,
2013-04-09 01:47:00,69.6,64.6,28.07,East,90,15.0,22.0,84,0.00,,,0.00,meteohub,2013-04-09 06:47:00,
2013-04-09 01:52:00,69.3,64.2,28.08,SE,135,18.0,22.0,84,0.00,,,0.00,meteohub,2013-04-09 06:52:00,
2013-04-09 01:57:00,69.4,64.4,28.07,SE,135,17.0,19.0,84,0.00,,,0.00,meteohub,2013-04-09 06:57:00,
2013-04-09 02:02:00,69.4,64.4,28.07,South,180,15.0,18.0,84,0.00,,,0.00,meteohub,2013-04-09 07:02:00,
2013-04-09 02:07:00,69.4,64.4,28.07,South,180,15.0,20.0,84,0.00,,,0.00,meteohub,2013-04-09 07:07:00,
2013-04-09 02:12:00,69.3,64.2,28.07,East,90,20.0,20.0,84,0.00,,,0.00,meteohub,2013-04-09 07:12:00,
2013-04-09 02:17:00,69.6,64.6,28.07,SE,135,10.0,20.0,84,0.00,,,0.00,meteohub,2013-04-09 07:17:00,
2013-04-09 02:22:00,69.3,63.9,28.07,SE,135,19.0,20.0,83,0.00,,,0.00,meteohub,2013-04-09 07:22:00,
2013-04-09 02:27:00,69.4,64.4,28.06,East,90,9.0,26.0,84,0.00,,,0.00,meteohub,2013-04-09 07:27:00,
2013-04-09 02:32:00,69.3,64.2,28.07,SE,135,12.0,26.0,84,0.00,,,0.00,meteohub,2013-04-09 07:32:00,
2013-04-09 02:37:00,68.9,63.9,28.07,East,90,15.0,26.0,84,0.00,,,0.00,meteohub,2013-04-09 07:37:00,
2013-04-09 02:42:00,68.9,63.9,28.07,East,90,16.0,19.0,84,0.00,,,0.00,meteohub,2013-04-09 07:42:00,
2013-04-09 02:47:00,69.1,64.0,28.06,SE,135,17.0,19.0,84,0.00,,,0.00,meteohub,2013-04-09 07:47:00,
2013-04-09 02:52:00,68.9,63.9,28.07,SE,135,13.0,18.0,84,0.00,,,0.00,meteohub,2013-04-09 07:52:00,
2013-04-09 02:57:00,68.7,63.7,28.07,East,90,11.0,17.0,84,0.00,,,0.00,meteohub,2013-04-09 07:57:00,
2013-04-09 03:02:00,68.7,63.7,28.06,East,90,17.0,17.0,84,0.00,,,0.00,meteohub,2013-04-09 08:02:00,
2013-04-09 03:07:00,68.5,63.5,28.06,SE,135,9.0,17.0,84,0.00,,,0.00,meteohub,2013-04-09 08:07:00,
2013-04-09 03:12:00,68.5,63.9,28.06,SE,135,17.0,17.0,85,0.00,,,0.00,meteohub,2013-04-09 08:12:00,
2013-04-09 03:17:00,68.4,63.7,28.06,NE,45,8.0,17.0,85,0.00,,,0.00,meteohub,2013-04-09 08:17:00,
2013-04-09 03:22:00,68.4,63.7,28.06,SE,135,11.0,17.0,85,0.00,,,0.00,meteohub,2013-04-09 08:22:00,
2013-04-09 03:27:00,68.4,63.7,28.06,SE,135,13.0,17.0,85,0.00,,,0.00,meteohub,2013-04-09 08:27:00,
2013-04-09 03:33:00,68.0,63.7,28.06,East,90,12.0,20.0,86,0.00,,,0.00,meteohub,2013-04-09 08:33:00,
2013-04-09 03:38:00,68.2,63.9,28.07,SE,135,15.0,20.0,86,0.00,,,0.00,meteohub,2013-04-09 08:38:00,
2013-04-09 03:43:00,68.2,63.9,28.07,East,90,15.0,20.0,86,0.00,,,0.00,meteohub,2013-04-09 08:43:00,
2013-04-09 03:48:00,68.2,63.9,28.07,South,180,10.0,15.0,86,0.00,,,0.00,meteohub,2013-04-09 08:48:00,
2013-04-09 03:53:00,68.0,63.7,28.07,SE,135,14.0,17.0,86,0.00,,,0.00,meteohub,2013-04-09 08:53:00,
2013-04-09 03:58:00,67.8,63.5,28.07,East,90,8.0,17.0,86,0.00,,,0.00,meteohub,2013-04-09 08:58:00,
2013-04-09 04:03:00,68.0,63.7,28.07,East,90,15.0,18.0,86,0.00,,,0.00,meteohub,2013-04-09 09:03:00,
2013-04-09 04:08:00,68.0,63.7,28.08,East,90,9.0,18.0,86,0.00,,,0.00,meteohub,2013-04-09 09:08:00,
2013-04-09 04:13:00,68.0,63.7,28.08,SE,135,10.0,17.0,86,0.00,,,0.00,meteohub,2013-04-09 09:13:00,
2013-04-09 04:18:00,67.6,63.3,28.07,SE,135,12.0,17.0,86,0.00,,,0.00,meteohub,2013-04-09 09:18:00,
2013-04-09 04:23:00,67.6,63.7,28.08,SE,135,13.0,17.0,87,0.00,,,0.00,meteohub,2013-04-09 09:23:00,
2013-04-09 04:28:00,67.6,63.7,28.08,SE,135,9.0,17.0,87,0.00,,,0.00,meteohub,2013-04-09 09:28:00,
2013-04-09 04:33:00,67.5,63.5,28.08,East,90,5.0,15.0,87,0.00,,,0.00,meteohub,2013-04-09 09:33:00,
2013-04-09 04:38:00,67.3,63.3,28.08,SE,135,15.0,15.0,87,0.00,,,0.00,meteohub,2013-04-09 09:38:00,
2013-04-09 04:43:00,67.1,63.1,28.08,East,90,14.0,15.0,87,0.00,,,0.00,meteohub,2013-04-09 09:43:00,
2013-04-09 04:48:00,67.3,63.3,28.07,East,90,16.0,16.0,87,0.00,,,0.00,meteohub,2013-04-09 09:48:00,
2013-04-09 04:53:00,67.1,63.1,28.07,SE,135,14.0,17.0,87,0.00,,,0.00,meteohub,2013-04-09 09:53:00,
2013-04-09 04:58:00,66.9,63.0,28.07,SE,135,11.0,17.0,87,0.00,,,0.00,meteohub,2013-04-09 09:58:00,
2013-04-09 05:03:00,67.1,62.8,28.07,East,90,11.0,17.0,86,0.00,,,0.00,meteohub,2013-04-09 10:03:00,
2013-04-09 05:08:00,66.9,62.6,28.07,ESE,113,13.0,15.0,86,0.00,,,0.00,meteohub,2013-04-09 10:08:00,
2013-04-09 05:13:00,67.1,62.8,28.07,SE,135,15.0,15.0,86,0.00,,,0.00,meteohub,2013-04-09 10:13:00,
2013-04-09 05:18:00,67.1,62.8,28.07,SE,135,9.0,15.0,86,0.00,,,0.00,meteohub,2013-04-09 10:18:00,
2013-04-09 05:24:00,66.9,62.6,28.07,SE,135,8.0,15.0,86,0.00,,,0.00,meteohub,2013-04-09 10:24:00,
2013-04-09 05:29:00,67.1,62.8,28.07,East,90,11.0,15.0,86,0.00,,,0.00,meteohub,2013-04-09 10:29:00,
2013-04-09 05:34:00,67.1,62.8,28.07,SE,135,7.0,13.0,86,0.00,,,0.00,meteohub,2013-04-09 10:34:00,
2013-04-09 05:39:00,67.1,62.8,28.07,SE,135,7.0,13.0,86,0.00,,,0.00,meteohub,2013-04-09 10:39:00,
2013-04-09 05:44:00,67.1,62.8,28.08,SE,135,12.0,13.0,86,0.00,,,0.00,meteohub,2013-04-09 10:44:00,
2013-04-09 05:49:00,67.3,62.6,28.08,SE,135,9.0,13.0,85,0.00,,,0.00,meteohub,2013-04-09 10:49:00,
2013-04-09 05:54:00,67.3,62.6,28.08,East,90,9.0,13.0,85,0.00,,,0.00,meteohub,2013-04-09 10:54:00,
2013-04-09 05:59:00,67.3,62.6,28.08,East,90,5.0,13.0,85,0.00,,,0.00,meteohub,2013-04-09 10:59:00,
2013-04-09 06:04:00,67.1,62.4,28.09,SE,135,9.0,14.0,85,0.00,,,0.00,meteohub,2013-04-09 11:04:00,
2013-04-09 06:09:00,67.3,62.6,28.08,East,90,7.0,15.0,85,0.00,,,0.00,meteohub,2013-04-09 11:09:00,
2013-04-09 06:14:00,67.5,62.4,28.08,South,180,8.0,15.0,84,0.00,,,0.00,meteohub,2013-04-09 11:14:00,
2013-04-09 06:19:00,67.6,62.6,28.08,SE,135,8.0,15.0,84,0.00,,,0.00,meteohub,2013-04-09 11:19:00,
2013-04-09 06:25:00,67.5,62.4,28.08,SE,135,9.0,12.0,84,0.00,,,0.00,meteohub,2013-04-09 11:25:00,
2013-04-09 06:30:00,67.5,62.4,28.08,NE,45,9.0,12.0,84,0.00,,,0.00,meteohub,2013-04-09 11:30:00,
2013-04-09 06:35:00,67.5,62.4,28.08,SE,135,11.0,15.0,84,0.00,,,0.00,meteohub,2013-04-09 11:35:00,
2013-04-09 06:40:00,67.6,62.6,28.07,East,90,11.0,15.0,84,0.00,,,0.00,meteohub,2013-04-09 11:40:00,
2013-04-09 06:45:00,67.5,62.4,28.08,East,90,12.0,16.0,84,0.00,,,0.00,meteohub,2013-04-09 11:45:00,
2013-04-09 06:50:00,67.5,62.4,28.09,SE,135,7.0,16.0,84,0.00,,,0.00,meteohub,2013-04-09 11:50:00,
2013-04-09 06:55:00,67.5,62.4,28.10,SE,135,6.0,13.0,84,0.00,,,0.00,meteohub,2013-04-09 11:55:00,
2013-04-09 07:00:00,67.5,62.4,28.09,East,90,7.0,12.0,84,0.00,,,0.00,meteohub,2013-04-09 12:00:00,
2013-04-09 07:05:00,67.6,62.6,28.10,SE,135,8.0,11.0,84,0.00,,,0.00,meteohub,2013-04-09 12:05:00,
2013-04-09 07:10:00,67.6,62.6,28.10,SE,135,8.0,11.0,84,0.00,,,0.00,meteohub,2013-04-09 12:10:00,
2013-04-09 07:15:00,67.8,62.8,28.09,SE,135,8.0,11.0,84,0.00,,,0.00,meteohub,2013-04-09 12:15:00,
2013-04-09 07:20:00,67.5,62.1,28.09,SE,135,6.0,11.0,83,0.00,,,0.00,meteohub,2013-04-09 12:20:00,
2013-04-09 07:25:00,67.8,62.8,28.09,SE,135,8.0,11.0,84,0.00,,,0.00,meteohub,2013-04-09 12:25:00,
2013-04-09 07:30:00,67.5,62.4,28.09,East,90,9.0,11.0,84,0.00,,,0.00,meteohub,2013-04-09 12:30:00,
2013-04-09 07:35:00,67.8,62.8,28.09,SE,135,10.0,11.0,84,0.00,,,0.00,meteohub,2013-04-09 12:35:00,
2013-04-09 07:41:00,67.5,62.4,28.09,SE,135,5.0,11.0,84,0.00,,,0.00,meteohub,2013-04-09 12:41:00,
2013-04-09 07:46:00,67.5,62.4,28.09,SE,135,6.0,10.0,84,0.00,,,0.00,meteohub,2013-04-09 12:46:00,
2013-04-09 07:51:00,67.5,62.4,28.09,South,180,6.0,11.0,84,0.00,,,0.00,meteohub,2013-04-09 12:51:00,
2013-04-09 07:57:00,67.3,62.2,28.09,SE,135,11.0,11.0,84,0.00,,,0.00,meteohub,2013-04-09 12:57:00,
2013-04-09 08:02:00,67.5,62.8,28.09,SE,135,8.0,11.0,85,0.00,,,0.00,meteohub,2013-04-09 13:02:00,
2013-04-09 08:07:00,67.5,62.8,28.09,NW,315,5.0,11.0,85,0.00,,,0.00,meteohub,2013-04-09 13:07:00,
2013-04-09 08:12:00,67.6,63.0,28.09,East,90,7.0,11.0,85,0.00,,,0.00,meteohub,2013-04-09 13:12:00,
2013-04-09 08:17:00,67.5,62.8,28.10,East,90,8.0,11.0,85,0.00,,,0.00,meteohub,2013-04-09 13:17:00,
2013-04-09 08:22:00,67.6,63.0,28.09,ESE,113,11.0,11.0,85,0.00,,,0.00,meteohub,2013-04-09 13:22:00,
2013-04-09 08:27:00,67.6,63.0,28.09,East,90,6.0,11.0,85,0.00,,,0.00,meteohub,2013-04-09 13:27:00,
2013-04-09 08:32:00,67.6,63.0,28.09,SE,135,11.0,11.0,85,0.00,,,0.00,meteohub,2013-04-09 13:32:00,
2013-04-09 08:37:00,68.0,63.3,28.09,East,90,10.0,11.0,85,0.00,,,0.00,meteohub,2013-04-09 13:37:00,
2013-04-09 08:42:00,68.0,63.0,28.10,East,90,10.0,11.0,84,0.00,,,0.00,meteohub,2013-04-09 13:42:00,
2013-04-09 08:47:00,68.0,63.0,28.10,East,90,8.0,11.0,84,0.00,,,0.00,meteohub,2013-04-09 13:47:00,
2013-04-09 08:52:00,68.2,63.1,28.10,East,90,8.0,11.0,84,0.00,,,0.00,meteohub,2013-04-09 13:52:00,
2013-04-09 08:57:00,68.4,63.3,28.09,East,90,11.0,11.0,84,0.00,,,0.00,meteohub,2013-04-09 13:57:00,
2013-04-09 09:02:00,68.5,63.5,28.09,East,90,8.0,12.0,84,0.00,,,0.00,meteohub,2013-04-09 14:02:00,
2013-04-09 09:07:00,68.5,63.1,28.10,East,90,10.0,14.0,83,0.00,,,0.00,meteohub,2013-04-09 14:07:00,
2013-04-09 09:12:00,68.5,63.1,28.09,SE,135,9.0,14.0,83,0.00,,,0.00,meteohub,2013-04-09 14:12:00,
2013-04-09 09:17:00,68.7,63.3,28.10,East,90,8.0,12.0,83,0.00,,,0.00,meteohub,2013-04-09 14:17:00,
2013-04-09 09:22:00,69.1,63.3,28.10,East,90,12.0,12.0,82,0.00,,,0.00,meteohub,2013-04-09 14:22:00,
2013-04-09 09:27:00,69.1,63.3,28.09,SE,135,15.0,15.0,82,0.00,,,0.00,meteohub,2013-04-09 14:27:00,
2013-04-09 09:32:00,69.1,63.0,28.10,East,90,15.0,15.0,81,0.00,,,0.00,meteohub,2013-04-09 14:32:00,
2013-04-09 09:37:00,69.3,63.1,28.10,East,90,11.0,17.0,81,0.00,,,0.00,meteohub,2013-04-09 14:37:00,
2013-04-09 09:42:00,69.6,63.1,28.10,East,90,8.0,17.0,80,0.00,,,0.00,meteohub,2013-04-09 14:42:00,
2013-04-09 09:47:00,69.8,63.3,28.10,SE,135,7.0,17.0,80,0.00,,,0.00,meteohub,2013-04-09 14:47:00,
2013-04-09 09:52:00,70.0,63.5,28.10,East,90,11.0,14.0,80,0.00,,,0.00,meteohub,2013-04-09 14:52:00,
2013-04-09 09:57:00,70.2,63.3,28.10,East,90,9.0,14.0,79,0.00,,,0.00,meteohub,2013-04-09 14:57:00,
2013-04-09 10:02:00,70.5,63.3,28.10,East,90,9.0,14.0,78,0.00,,,0.00,meteohub,2013-04-09 15:02:00,
2013-04-09 10:07:00,70.5,63.0,28.10,East,90,11.0,14.0,77,0.00,,,0.00,meteohub,2013-04-09 15:07:00,
2013-04-09 10:12:00,70.7,63.1,28.10,East,90,16.0,16.0,77,0.00,,,0.00,meteohub,2013-04-09 15:12:00,
2013-04-09 10:17:00,70.7,63.1,28.10,ESE,113,12.0,19.0,77,0.00,,,0.00,meteohub,2013-04-09 15:17:00,
2013-04-09 10:22:00,70.9,63.3,28.10,East,90,9.0,19.0,77,0.00,,,0.00,meteohub,2013-04-09 15:22:00,
2013-04-09 10:28:00,70.9,63.0,28.10,SE,135,9.0,19.0,76,0.00,,,0.00,meteohub,2013-04-09 15:28:00,
2013-04-09 10:33:00,71.1,63.1,28.10,East,90,14.0,17.0,76,0.00,,,0.00,meteohub,2013-04-09 15:33:00,
2013-04-09 10:38:00,71.4,63.1,28.11,East,90,13.0,17.0,75,0.00,,,0.00,meteohub,2013-04-09 15:38:00,
2013-04-09 10:43:00,71.4,63.5,28.11,SE,135,10.0,16.0,76,0.00,,,0.00,meteohub,2013-04-09 15:43:00,
2013-04-09 10:48:00,71.8,63.5,28.11,East,90,13.0,15.0,75,0.00,,,0.00,meteohub,2013-04-09 15:48:00,
2013-04-09 10:53:00,72.1,63.3,28.11,SE,135,8.0,15.0,74,0.00,,,0.00,meteohub,2013-04-09 15:53:00,
2013-04-09 10:58:00,72.3,62.8,28.11,East,90,11.0,19.0,72,0.00,,,0.00,meteohub,2013-04-09 15:58:00,
2013-04-09 11:03:00,72.7,63.1,28.12,SE,135,6.0,19.0,72,0.00,,,0.00,meteohub,2013-04-09 16:03:00,
2013-04-09 11:08:00,73.8,63.3,28.12,SE,135,13.0,15.0,70,0.00,,,0.00,meteohub,2013-04-09 16:08:00,
2013-04-09 11:13:00,73.6,62.8,28.12,SE,135,11.0,15.0,69,0.00,,,0.00,meteohub,2013-04-09 16:13:00,
2013-04-09 11:18:00,73.8,62.6,28.12,South,180,12.0,15.0,68,0.00,,,0.00,meteohub,2013-04-09 16:18:00,
2013-04-09 11:23:00,73.9,62.8,28.13,SSE,158,11.0,16.0,68,0.00,,,0.00,meteohub,2013-04-09 16:23:00,
2013-04-09 11:28:00,73.9,62.8,28.13,South,180,14.0,16.0,68,0.00,,,0.00,meteohub,2013-04-09 16:28:00,
2013-04-09 11:33:00,73.8,62.6,28.13,SE,135,9.0,15.0,68,0.00,,,0.00,meteohub,2013-04-09 16:33:00,
2013-04-09 11:38:00,74.7,63.0,28.13,SE,135,8.0,15.0,67,0.00,,,0.00,meteohub,2013-04-09 16:38:00,
2013-04-09 11:43:00,74.5,62.8,28.13,SSE,158,7.0,15.0,67,0.00,,,0.00,meteohub,2013-04-09 16:43:00,
2013-04-09 11:48:00,75.0,62.4,28.13,SE,135,12.0,15.0,65,0.00,,,0.00,meteohub,2013-04-09 16:48:00,
2013-04-09 11:53:00,75.2,62.6,28.13,South,180,11.0,16.0,65,0.00,,,0.00,meteohub,2013-04-09 16:53:00,
2013-04-09 11:58:00,75.7,63.1,28.13,South,180,8.0,16.0,65,0.00,,,0.00,meteohub,2013-04-09 16:58:00,
2013-04-09 12:03:00,77.2,63.1,28.13,SE,135,11.0,19.0,62,0.00,,,0.00,meteohub,2013-04-09 17:03:00,
2013-04-09 12:08:00,76.8,62.4,28.13,South,180,14.0,19.0,61,0.00,,,0.00,meteohub,2013-04-09 17:08:00,
2013-04-09 12:13:00,76.8,62.4,28.13,South,180,14.0,17.0,61,0.00,,,0.00,meteohub,2013-04-09 17:13:00,
2013-04-09 12:18:00,76.8,62.8,28.12,ESE,113,9.0,17.0,62,0.00,,,0.00,meteohub,2013-04-09 17:18:00,
2013-04-09 12:23:00,77.4,62.8,28.12,East,90,11.0,17.0,61,0.00,,,0.00,meteohub,2013-04-09 17:23:00,
2013-04-09 12:29:00,77.7,63.1,28.12,South,180,8.0,17.0,61,0.00,,,0.00,meteohub,2013-04-09 17:29:00,
2013-04-09 12:34:00,78.4,63.3,28.13,East,90,7.0,13.0,60,0.00,,,0.00,meteohub,2013-04-09 17:34:00,
2013-04-09 12:39:00,78.6,62.1,28.12,East,90,10.0,13.0,57,0.00,,,0.00,meteohub,2013-04-09 17:39:00,
2013-04-09 12:44:00,78.3,62.2,28.12,East,90,9.0,15.0,58,0.00,,,0.00,meteohub,2013-04-09 17:44:00,
2013-04-09 12:49:00,77.7,62.2,28.12,SE,135,9.0,15.0,59,0.00,,,0.00,meteohub,2013-04-09 17:49:00,
2013-04-09 12:54:00,77.9,62.4,28.11,East,90,8.0,15.0,59,0.00,,,0.00,meteohub,2013-04-09 17:54:00,
2013-04-09 12:59:00,78.6,62.1,28.11,East,90,15.0,16.0,57,0.00,,,0.00,meteohub,2013-04-09 17:59:00,
2013-04-09 13:04:00,79.0,62.4,28.11,East,90,10.0,16.0,57,0.00,,,0.00,meteohub,2013-04-09 18:04:00,
2013-04-09 13:09:00,79.9,62.2,28.11,SE,135,12.0,16.0,55,0.00,,,0.00,meteohub,2013-04-09 18:09:00,
2013-04-09 13:14:00,80.6,62.4,28.11,SE,135,9.0,15.0,54,0.00,,,0.00,meteohub,2013-04-09 18:14:00,
2013-04-09 13:20:00,81.0,61.7,28.10,SSE,158,11.0,14.0,52,0.00,,,0.00,meteohub,2013-04-09 18:20:00,
2013-04-09 13:25:00,81.1,60.8,28.10,SE,135,12.0,17.0,50,0.00,,,0.00,meteohub,2013-04-09 18:25:00,
2013-04-09 13:30:00,80.4,62.2,28.10,East,90,11.0,17.0,54,0.00,,,0.00,meteohub,2013-04-09 18:30:00,
2013-04-09 13:35:00,81.0,62.2,28.09,East,90,14.0,17.0,53,0.00,,,0.00,meteohub,2013-04-09 18:35:00,
2013-04-09 13:40:00,81.9,61.9,28.09,East,90,14.0,16.0,51,0.00,,,0.00,meteohub,2013-04-09 18:40:00,
2013-04-09 13:45:00,82.0,61.5,28.10,East,90,7.0,17.0,50,0.00,,,0.00,meteohub,2013-04-09 18:45:00,
2013-04-09 13:50:00,82.2,61.7,28.10,East,90,11.0,17.0,50,0.00,,,0.00,meteohub,2013-04-09 18:50:00,
2013-04-09 13:55:00,82.8,62.2,28.09,SE,135,7.0,15.0,50,0.00,,,0.00,meteohub,2013-04-09 18:55:00,
2013-04-09 14:00:00,82.0,61.0,28.10,SW,225,4.0,15.0,49,0.00,,,0.00,meteohub,2013-04-09 19:00:00,
2013-04-09 14:05:00,75.0,50.4,28.12,North,0,17.0,17.0,42,0.00,,,0.00,meteohub,2013-04-09 19:05:00,
2013-04-09 14:10:00,66.2,49.1,28.12,North,0,18.0,23.0,54,0.00,,,0.00,meteohub,2013-04-09 19:10:00,
2013-04-09 14:16:00,64.4,48.9,28.13,NW,315,17.0,30.0,57,0.00,,,0.00,meteohub,2013-04-09 19:16:00,
2013-04-09 14:21:00,64.2,49.6,28.13,North,0,15.0,30.0,59,0.00,,,0.00,meteohub,2013-04-09 19:21:00,
2013-04-09 14:26:00,64.6,49.5,28.13,North,0,21.0,30.0,58,0.00,,,0.00,meteohub,2013-04-09 19:26:00,
2013-04-09 14:31:00,64.8,49.1,28.13,NW,315,25.0,25.0,57,0.00,,,0.00,meteohub,2013-04-09 19:31:00,
2013-04-09 14:36:00,65.7,48.0,28.13,NW,315,23.0,25.0,53,0.00,,,0.00,meteohub,2013-04-09 19:36:00,
2013-04-09 14:41:00,65.5,46.9,28.13,NW,315,23.0,27.0,51,0.00,,,0.00,meteohub,2013-04-09 19:41:00,
2013-04-09 14:47:00,63.7,46.2,28.13,North,0,23.0,27.0,53,0.00,,,0.00,meteohub,2013-04-09 19:47:00,
2013-04-09 14:52:00,64.4,45.3,28.13,North,0,17.0,30.0,50,0.00,,,0.00,meteohub,2013-04-09 19:52:00,
2013-04-09 14:57:00,62.4,44.1,28.13,North,0,22.0,30.0,51,0.00,,,0.00,meteohub,2013-04-09 19:57:00,
2013-04-09 15:02:00,60.8,44.1,28.13,North,0,20.0,27.0,54,0.00,,,0.00,meteohub,2013-04-09 20:02:00,
2013-04-09 15:07:00,60.3,44.1,28.14,North,0,15.0,25.0,55,0.00,,,0.00,meteohub,2013-04-09 20:07:00,
2013-04-09 15:12:00,61.3,43.5,28.14,NW,315,21.0,25.0,52,0.00,,,0.00,meteohub,2013-04-09 20:12:00,
2013-04-09 15:17:00,61.3,43.5,28.14,NW,315,21.0,25.0,52,0.00,,,0.00,meteohub,2013-04-09 20:17:00,
2013-04-09 15:22:00,61.0,42.3,28.14,NW,315,27.0,27.0,50,0.00,,,0.00,meteohub,2013-04-09 20:22:00,
2013-04-09 15:27:00,60.8,42.1,28.14,North,0,21.0,27.0,50,0.00,,,0.00,meteohub,2013-04-09 20:27:00,
2013-04-09 15:32:00,60.1,41.9,28.14,North,0,21.0,27.0,51,0.00,,,0.00,meteohub,2013-04-09 20:32:00,
2013-04-09 15:37:00,59.9,42.3,28.15,NW,315,16.0,27.0,52,0.00,,,0.00,meteohub,2013-04-09 20:37:00,
2013-04-09 15:42:00,60.1,40.8,28.15,NW,315,20.0,25.0,49,0.00,,,0.00,meteohub,2013-04-09 20:42:00,
2013-04-09 15:47:00,59.5,41.4,28.15,North,0,24.0,25.0,51,0.00,,,0.00,meteohub,2013-04-09 20:47:00,
2013-04-09 15:52:00,58.5,40.8,28.15,NW,315,17.0,24.0,52,0.00,,,0.00,meteohub,2013-04-09 20:52:00,
2013-04-09 15:57:00,58.3,40.8,28.16,North,0,23.0,24.0,52,0.00,,,0.00,meteohub,2013-04-09 20:57:00,
2013-04-09 16:02:00,57.9,40.5,28.16,NW,315,16.0,24.0,52,0.00,,,0.00,meteohub,2013-04-09 21:02:00,
2013-04-09 16:07:00,57.2,39.7,28.16,NW,315,28.0,28.0,52,0.00,,,0.00,meteohub,2013-04-09 21:07:00,
2013-04-09 16:12:00,57.2,40.3,28.17,NW,315,17.0,28.0,53,0.00,,,0.00,meteohub,2013-04-09 21:12:00,
2013-04-09 16:17:00,56.7,39.7,28.17,NW,315,17.0,28.0,53,0.00,,,0.00,meteohub,2013-04-09 21:17:00,
2013-04-09 16:22:00,56.7,38.3,28.17,NW,315,23.0,28.0,50,0.00,,,0.00,meteohub,2013-04-09 21:22:00,
2013-04-09 16:27:00,56.1,38.3,28.17,North,0,23.0,26.0,51,0.00,,,0.00,meteohub,2013-04-09 21:27:00,
2013-04-09 16:32:00,55.6,37.8,28.17,NW,315,17.0,26.0,51,0.00,,,0.00,meteohub,2013-04-09 21:32:00,
2013-04-09 16:37:00,55.0,37.2,28.18,WNW,293,23.0,26.0,51,0.00,,,0.00,meteohub,2013-04-09 21:37:00,
2013-04-09 16:42:00,54.7,37.9,28.17,NW,315,21.0,26.0,53,0.00,,,0.00,meteohub,2013-04-09 21:42:00,
2013-04-09 16:47:00,54.7,37.9,28.18,NW,315,24.0,26.0,53,0.00,,,0.00,meteohub,2013-04-09 21:47:00,
2013-04-09 16:52:00,54.3,37.9,28.19,WNW,293,17.0,26.0,54,0.00,,,0.00,meteohub,2013-04-09 21:52:00,
2013-04-09 16:57:00,53.4,36.3,28.20,NW,315,22.0,25.0,52,0.00,,,0.00,meteohub,2013-04-09 21:57:00,
2013-04-09 17:02:00,52.7,36.5,28.19,NW,315,21.0,25.0,54,0.00,,,0.00,meteohub,2013-04-09 22:02:00,
2013-04-09 17:07:00,52.2,36.5,28.20,NW,315,19.0,25.0,55,0.00,,,0.00,meteohub,2013-04-09 22:07:00,
2013-04-09 17:12:00,52.0,36.3,28.21,North,0,17.0,25.0,55,0.00,,,0.00,meteohub,2013-04-09 22:12:00,
2013-04-09 17:18:00,51.6,36.5,28.20,NW,315,22.0,25.0,56,0.00,,,0.00,meteohub,2013-04-09 22:18:00,
2013-04-09 17:23:00,51.1,36.0,28.21,NW,315,25.0,25.0,56,0.00,,,0.00,meteohub,2013-04-09 22:23:00,
2013-04-09 17:28:00,50.5,35.4,28.21,NW,315,21.0,25.0,56,0.00,,,0.00,meteohub,2013-04-09 22:28:00,
2013-04-09 17:33:00,49.6,35.4,28.21,NW,315,18.0,25.0,58,0.00,,,0.00,meteohub,2013-04-09 22:33:00,
2013-04-09 17:38:00,49.1,34.5,28.22,NW,315,24.0,26.0,57,0.00,,,0.00,meteohub,2013-04-09 22:38:00,
2013-04-09 17:43:00,48.2,33.6,28.23,North,0,20.0,27.0,57,0.00,,,0.00,meteohub,2013-04-09 22:43:00,
2013-04-09 17:48:00,47.1,33.1,28.22,NW,315,21.0,27.0,58,0.00,,,0.00,meteohub,2013-04-09 22:48:00,
2013-04-09 17:53:00,46.4,32.9,28.22,NW,315,21.0,27.0,59,0.00,,,0.00,meteohub,2013-04-09 22:53:00,
2013-04-09 17:58:00,45.9,32.7,28.23,North,0,29.0,29.0,60,0.00,,,0.00,meteohub,2013-04-09 22:58:00,
2013-04-09 18:03:00,45.3,33.1,28.23,NW,315,21.0,29.0,62,0.01,,,0.01,meteohub,2013-04-09 23:03:00,
2013-04-09 18:08:00,44.8,32.5,28.24,NW,315,21.0,29.0,62,0.01,,,0.01,meteohub,2013-04-09 23:08:00,
2013-04-09 18:13:00,43.9,32.5,28.26,West,270,18.0,29.0,64,0.01,,,0.01,meteohub,2013-04-09 23:13:00,
2013-04-09 18:18:00,43.5,32.2,28.27,NW,315,25.0,27.0,64,0.01,,,0.01,meteohub,2013-04-09 23:18:00,
2013-04-09 18:23:00,42.4,31.5,28.27,NW,315,26.0,29.0,65,0.01,,,0.01,meteohub,2013-04-09 23:23:00,
2013-04-09 18:28:00,42.3,32.2,28.27,NW,315,19.0,29.0,67,0.02,,,0.02,meteohub,2013-04-09 23:28:00,
2013-04-09 18:33:00,42.1,32.0,28.27,North,0,21.0,29.0,67,0.02,,,0.02,meteohub,2013-04-09 23:33:00,
2013-04-09 18:38:00,41.7,32.0,28.27,NW,315,11.0,28.0,68,0.02,,,0.02,meteohub,2013-04-09 23:38:00,
2013-04-09 18:43:00,41.0,30.9,28.27,NW,315,21.0,28.0,67,0.04,,,0.04,meteohub,2013-04-09 23:43:00,
2013-04-09 18:48:00,40.6,31.3,28.28,NW,315,20.0,28.0,69,0.04,,,0.04,meteohub,2013-04-09 23:48:00,
2013-04-09 18:53:00,40.5,30.7,28.28,NW,315,22.0,30.0,68,0.04,,,0.04,meteohub,2013-04-09 23:53:00,
2013-04-09 18:58:00,40.1,30.7,28.29,NW,315,18.0,30.0,69,0.02,,,0.04,meteohub,2013-04-09 23:58:00,
2013-04-09 19:03:00,39.6,30.2,28.30,NW,315,20.0,30.0,69,0.02,,,0.04,meteohub,2013-04-10 00:03:00,
2013-04-09 19:08:00,39.6,30.6,28.29,WNW,293,16.0,22.0,70,0.02,,,0.00,meteohub,2013-04-10 00:08:00,
2013-04-09 19:13:00,39.2,30.2,28.29,NW,315,15.0,24.0,70,0.02,,,0.00,meteohub,2013-04-10 00:13:00,
2013-04-09 19:19:00,38.7,29.7,28.30,North,0,20.0,24.0,70,0.02,,,0.00,meteohub,2013-04-10 00:19:00,
2013-04-09 19:24:00,38.7,30.0,28.31,West,270,17.0,23.0,71,0.01,,,0.00,meteohub,2013-04-10 00:24:00,
2013-04-09 19:29:00,38.1,29.5,28.30,North,0,19.0,23.0,71,0.01,,,0.00,meteohub,2013-04-10 00:29:00,
2013-04-09 19:34:00,37.8,29.5,28.31,NW,315,17.0,23.0,72,0.01,,,0.00,meteohub,2013-04-10 00:34:00,
2013-04-09 19:39:00,37.4,29.1,28.33,North,0,16.0,23.0,72,0.00,,,0.00,meteohub,2013-04-10 00:39:00,
2013-04-09 19:44:00,37.4,29.1,28.32,NW,315,17.0,23.0,72,0.00,,,0.00,meteohub,2013-04-10 00:44:00,
2013-04-09 19:49:00,37.4,29.1,28.33,NW,315,18.0,26.0,72,0.00,,,0.00,meteohub,2013-04-10 00:49:00,
2013-04-09 19:54:00,37.0,29.1,28.34,NW,315,23.0,26.0,73,0.00,,,0.00,meteohub,2013-04-10 00:54:00,
2013-04-09 19:59:00,36.7,28.8,28.34,NW,315,27.0,30.0,73,0.00,,,0.00,meteohub,2013-04-10 00:59:00,
2013-04-09 20:04:00,36.7,28.8,28.34,NW,315,27.0,30.0,73,0.00,,,0.00,meteohub,2013-04-10 01:04:00,
2013-04-09 20:09:00,36.5,28.8,28.34,North,0,22.0,30.0,73,0.00,,,0.00,meteohub,2013-04-10 01:09:00,
2013-04-09 20:14:00,36.3,28.6,28.33,NW,315,23.0,30.0,73,0.08,,,0.08,meteohub,2013-04-10 01:14:00,
2013-04-09 20:19:00,36.3,28.8,28.34,WNW,293,25.0,30.0,74,0.08,,,0.08,meteohub,2013-04-10 01:19:00,
2013-04-09 20:24:00,36.0,29.1,28.34,NW,315,17.0,31.0,76,0.08,,,0.08,meteohub,2013-04-10 01:24:00,
2013-04-09 20:29:00,36.0,29.5,28.34,WNW,293,25.0,31.0,77,0.09,,,0.09,meteohub,2013-04-10 01:29:00,
2013-04-09 20:34:00,35.8,29.3,28.35,NW,315,15.0,34.0,77,0.11,,,0.11,meteohub,2013-04-10 01:34:00,
2013-04-09 20:39:00,36.0,29.5,28.36,WNW,293,20.0,34.0,77,0.11,,,0.11,meteohub,2013-04-10 01:39:00,
2013-04-09 20:44:00,36.0,29.5,28.36,NW,315,22.0,34.0,77,0.11,,,0.11,meteohub,2013-04-10 01:44:00,
2013-04-09 20:49:00,35.6,29.7,28.36,NW,315,17.0,28.0,79,0.11,,,0.11,meteohub,2013-04-10 01:49:00,
2013-04-09 20:54:00,35.8,30.6,28.36,North,0,21.0,27.0,81,0.11,,,0.11,meteohub,2013-04-10 01:54:00,
2013-04-09 20:59:00,35.2,30.9,28.37,WNW,293,22.0,27.0,84,0.11,,,0.11,meteohub,2013-04-10 01:59:00,
2013-04-09 21:04:00,35.2,31.1,28.37,North,0,23.0,27.0,85,0.11,,,0.11,meteohub,2013-04-10 02:04:00,
2013-04-09 21:09:00,35.1,31.3,28.35,NW,315,17.0,26.0,86,0.09,,,0.13,meteohub,2013-04-10 02:09:00,
2013-04-09 21:14:00,35.1,31.6,28.37,North,0,21.0,26.0,87,0.05,,,0.13,meteohub,2013-04-10 02:14:00,
2013-04-09 21:19:00,35.4,32.2,28.38,NW,315,16.0,26.0,88,0.06,,,0.14,meteohub,2013-04-10 02:19:00,
2013-04-09 21:24:00,35.2,32.5,28.37,NW,315,13.0,26.0,90,0.05,,,0.14,meteohub,2013-04-10 02:24:00,
2013-04-09 21:29:00,35.2,33.1,28.37,NW,315,15.0,26.0,92,0.05,,,0.14,meteohub,2013-04-10 02:29:00,
2013-04-09 21:34:00,34.9,33.1,28.37,North,0,21.0,23.0,93,0.04,,,0.14,meteohub,2013-04-10 02:34:00,
2013-04-09 21:39:00,34.9,33.3,28.38,North,0,14.0,23.0,94,0.04,,,0.14,meteohub,2013-04-10 02:39:00,
2013-04-09 21:45:00,35.1,33.8,28.36,North,0,13.0,23.0,95,0.04,,,0.14,meteohub,2013-04-10 02:45:00,
2013-04-09 21:50:00,35.1,33.8,28.37,North,0,11.0,21.0,95,0.04,,,0.14,meteohub,2013-04-10 02:50:00,
2013-04-09 21:55:00,35.2,34.2,28.37,WNW,293,10.0,19.0,96,0.04,,,0.14,meteohub,2013-04-10 02:55:00,
2013-04-09 22:00:00,35.6,34.5,28.36,NW,315,13.0,19.0,96,0.04,,,0.14,meteohub,2013-04-10 03:00:00,
2013-04-09 22:05:00,35.6,34.5,28.38,North,0,21.0,21.0,96,0.04,,,0.14,meteohub,2013-04-10 03:05:00,
2013-04-09 22:10:00,36.0,35.2,28.41,NW,315,11.0,21.0,97,0.01,,,0.14,meteohub,2013-04-10 03:10:00,
2013-04-09 22:15:00,36.1,35.4,28.42,NW,315,21.0,22.0,97,0.01,,,0.15,meteohub,2013-04-10 03:15:00,
2013-04-09 22:20:00,36.0,35.2,28.38,WNW,293,17.0,22.0,97,0.01,,,0.15,meteohub,2013-04-10 03:20:00,
2013-04-09 22:25:00,36.0,35.4,28.41,NW,315,19.0,22.0,98,0.01,,,0.15,meteohub,2013-04-10 03:25:00,
2013-04-09 22:30:00,36.1,35.6,28.48,NW,315,25.0,27.0,98,0.02,,,0.17,meteohub,2013-04-10 03:30:00,
2013-04-09 22:35:00,35.1,34.0,28.40,NNW,338,23.0,27.0,96,0.05,,,0.19,meteohub,2013-04-10 03:35:00,
2013-04-09 22:40:00,33.8,33.3,28.42,North,0,22.0,27.0,98,0.13,,,0.27,meteohub,2013-04-10 03:40:00,
2013-04-09 22:45:00,33.4,33.3,28.43,NW,315,15.0,25.0,99,0.13,,,0.27,meteohub,2013-04-10 03:45:00,
2013-04-09 22:50:00,33.3,33.1,28.42,North,0,14.0,25.0,99,0.14,,,0.28,meteohub,2013-04-10 03:50:00,
2013-04-09 22:55:00,32.9,32.7,28.41,NW,315,16.0,23.0,99,0.22,,,0.37,meteohub,2013-04-10 03:55:00,
2013-04-09 23:00:00,32.9,32.7,28.44,North,0,16.0,23.0,99,0.24,,,0.38,meteohub,2013-04-10 04:00:00,
2013-04-09 23:05:00,33.1,32.9,28.47,WNW,293,23.0,23.0,99,0.24,,,0.38,meteohub,2013-04-10 04:05:00,
2013-04-09 23:10:00,33.1,32.9,28.43,NW,315,17.0,23.0,99,0.24,,,0.38,meteohub,2013-04-10 04:10:00,
2013-04-09 23:15:00,33.3,33.1,28.39,NW,315,23.0,23.0,99,0.24,,,0.39,meteohub,2013-04-10 04:15:00,
2013-04-09 23:21:00,33.1,32.9,28.40,North,0,20.0,23.0,99,0.24,,,0.39,meteohub,2013-04-10 04:21:00,
2013-04-09 23:26:00,33.1,32.5,28.37,North,0,29.0,29.0,98,0.24,,,0.39,meteohub,2013-04-10 04:26:00,
2013-04-09 23:31:00,32.9,32.2,28.37,North,0,24.0,29.0,97,0.22,,,0.39,meteohub,2013-04-10 04:31:00,
2013-04-09 23:36:00,33.1,32.0,28.39,North,0,18.0,29.0,96,0.18,,,0.39,meteohub,2013-04-10 04:36:00,
2013-04-09 23:41:00,33.1,31.5,28.39,North,0,23.0,29.0,94,0.12,,,0.39,meteohub,2013-04-10 04:41:00,
2013-04-09 23:46:00,33.1,31.5,28.42,NW,315,15.0,29.0,94,0.11,,,0.39,meteohub,2013-04-10 04:46:00,
2013-04-09 23:51:00,33.1,31.5,28.42,NW,315,24.0,24.0,94,0.08,,,0.39,meteohub,2013-04-10 04:51:00,
2013-04-09 23:56:00,33.1,31.8,28.43,North,0,20.0,24.0,95,0.01,,,0.39,meteohub,2013-04-10 04:56:00,